Location: Domicella
(40.8833°N, 14.5833°E)
Time: 15:22:08
(UTC+00:00)

CZ-4C R/B - Pass Details

Date: 15 May 2026
Orbit: 474 x 1503 km, 63.4° (Epoch: 10 June)

Event Time Altitude Azimuth Distance (km) Brightness Sun altitude
Rises 19:05:15 0° 252° (WSW) 2,689 5.4 -9.4°
Reaches altitude 10° 19:07:36 10° 267° (W) 1,901 4.9 -9.8°
Maximum altitude 19:11:04 24° 322° (NW) 1,379 4.4 -10.3°
Drops below altitude 10° 19:15:15 10° 16° (NNE) 2,329 4.8 -10.9°
Sets 19:18:28 0° 29° (NNE) 3,466 5.5 -11.4°
